TimeCST,TemperatureF,Dew PointF,Humidity,Sea Level PressureIn,VisibilityMPH,Wind Direction,Wind SpeedMPH,Gust SpeedMPH,PrecipitationIn,Events,Conditions,WindDirDegrees,DateUTC
12:53 AM,64.9,55.0,70,30.03,10.0,South,8.1,-,N/A,,Mostly Cloudy,190,2012-12-04 06:53:00
1:53 AM,66.0,55.9,70,30.03,10.0,SSW,10.4,19.6,N/A,,Overcast,200,2012-12-04 07:53:00
2:53 AM,66.9,55.9,68,30.03,10.0,SSW,11.5,23.0,N/A,,Overcast,210,2012-12-04 08:53:00
3:53 AM,66.9,57.0,70,30.02,10.0,SSW,10.4,19.6,N/A,,Overcast,200,2012-12-04 09:53:00
4:53 AM,66.0,57.0,73,30.02,10.0,SSW,11.5,17.3,N/A,,Overcast,210,2012-12-04 10:53:00
5:26 AM,66.2,57.2,73,30.03,10.0,SSW,8.1,17.3,N/A,,Overcast,210,2012-12-04 11:26:00
5:53 AM,64.9,57.0,75,30.03,10.0,SSW,11.5,17.3,N/A,,Overcast,210,2012-12-04 11:53:00
6:53 AM,64.0,57.0,78,30.05,10.0,Variable,6.9,-,N/A,,Overcast,0,2012-12-04 12:53:00
7:53 AM,64.0,57.0,78,30.06,10.0,SSW,6.9,-,N/A,,Overcast,210,2012-12-04 13:53:00
8:53 AM,66.0,57.9,75,30.06,10.0,SSW,9.2,17.3,N/A,,Overcast,200,2012-12-04 14:53:00
9:53 AM,64.9,59.0,81,30.08,5.0,WSW,15.0,21.9,0.01,Rain,Light Rain,240,2012-12-04 15:53:00
9:57 AM,64.4,60.8,88,30.09,1.8,West,16.1,21.9,0.02,Rain,Heavy Rain,270,2012-12-04 15:57:00
10:02 AM,62.6,60.8,94,30.09,1.0,WSW,15.0,-,0.13,Rain-Thunderstorm,Thunderstorms and Rain,250,2012-12-04 16:02:00
10:11 AM,62.6,60.8,94,30.09,0.8,SW,13.8,-,0.27,Rain-Thunderstorm,Thunderstorms and Rain,230,2012-12-04 16:11:00
10:20 AM,62.6,60.8,94,30.10,1.2,WSW,11.5,-,0.32,Rain-Thunderstorm,Thunderstorms and Rain,250,2012-12-04 16:20:00
10:30 AM,62.6,60.8,94,30.09,1.0,WSW,10.4,-,0.45,Rain,Rain,250,2012-12-04 16:30:00
10:37 AM,62.6,60.8,94,30.08,3.0,West,9.2,-,0.46,Rain,Light Rain,270,2012-12-04 16:37:00
10:53 AM,63.0,61.0,93,30.07,9.0,West,8.1,-,0.46,,Overcast,260,2012-12-04 16:53:00
11:03 AM,62.6,60.8,94,30.07,10.0,West,6.9,-,N/A,,Overcast,260,2012-12-04 17:03:00
11:26 AM,64.4,62.6,94,30.06,10.0,West,4.6,-,N/A,,Overcast,280,2012-12-04 17:26:00
11:40 AM,64.4,60.8,88,30.04,10.0,Calm,Calm,-,N/A,,Overcast,0,2012-12-04 17:40:00
11:53 AM,64.0,61.0,90,30.02,10.0,Calm,Calm,-,N/A,,Mostly Cloudy,0,2012-12-04 17:53:00
12:09 PM,64.4,62.6,94,30.06,10.0,West,8.1,-,N/A,,Mostly Cloudy,280,2012-12-04 18:09:00
12:19 PM,64.4,60.8,88,30.07,10.0,WNW,6.9,-,N/A,,Mostly Cloudy,300,2012-12-04 18:19:00
12:36 PM,64.4,60.8,88,30.07,10.0,NNW,12.7,20.7,N/A,,Overcast,330,2012-12-04 18:36:00
12:40 PM,60.8,59.0,94,30.07,8.0,NNW,17.3,20.7,0.00,Rain,Light Rain,340,2012-12-04 18:40:00
12:49 PM,59.0,55.4,88,30.07,9.0,NNW,11.5,-,0.00,Rain,Light Rain,330,2012-12-04 18:49:00
12:53 PM,59.0,55.9,90,30.06,10.0,North,12.7,-,0.00,,Overcast,350,2012-12-04 18:53:00
1:53 PM,57.9,54.0,87,30.08,10.0,NW,11.5,-,N/A,,Overcast,320,2012-12-04 19:53:00
2:00 PM,57.2,53.6,88,30.09,10.0,NW,12.7,17.3,N/A,,Overcast,320,2012-12-04 20:00:00
2:36 PM,57.2,53.6,88,30.10,6.0,North,4.6,-,0.01,Rain,Light Rain,350,2012-12-04 20:36:00
2:53 PM,55.9,54.0,93,30.11,7.0,North,10.4,-,0.01,Rain,Light Rain,350,2012-12-04 20:53:00
3:02 PM,55.4,53.6,94,30.12,6.0,NNW,11.5,-,0.01,Rain,Light Rain,340,2012-12-04 21:02:00
3:17 PM,55.4,51.8,88,30.13,6.0,NNW,9.2,-,0.01,Rain,Light Rain,340,2012-12-04 21:17:00
3:32 PM,55.4,51.8,88,30.14,10.0,North,11.5,-,0.01,,Overcast,350,2012-12-04 21:32:00
3:53 PM,54.0,52.0,93,30.14,4.0,North,10.4,-,0.01,Rain,Light Rain,350,2012-12-04 21:53:00
4:23 PM,53.6,51.8,94,30.16,5.0,North,12.7,-,0.00,Rain,Light Rain,350,2012-12-04 22:23:00
4:53 PM,54.0,52.0,93,30.15,8.0,North,10.4,-,0.01,,Overcast,360,2012-12-04 22:53:00
5:01 PM,53.6,51.8,94,30.16,10.0,North,11.5,-,N/A,,Overcast,10,2012-12-04 23:01:00
5:36 PM,53.6,50.0,88,30.18,10.0,North,9.2,-,N/A,,Overcast,360,2012-12-04 23:36:00
5:53 PM,54.0,50.0,86,30.19,10.0,North,11.5,-,N/A,,Overcast,360,2012-12-04 23:53:00
6:53 PM,52.0,48.0,86,30.21,10.0,NNE,6.9,-,N/A,,Mostly Cloudy,20,2012-12-05 00:53:00
7:53 PM,53.1,45.0,74,30.23,10.0,North,10.4,-,N/A,,Overcast,10,2012-12-05 01:53:00
8:53 PM,50.0,44.1,80,30.23,10.0,NNE,9.2,-,N/A,,Clear,20,2012-12-05 02:53:00
9:53 PM,46.9,43.0,86,30.25,10.0,Calm,Calm,-,N/A,,Clear,0,2012-12-05 03:53:00
10:53 PM,46.0,43.0,89,30.27,10.0,North,4.6,-,N/A,,Clear,360,2012-12-05 04:53:00
11:53 PM,44.1,42.1,93,30.27,10.0,North,4.6,-,N/A,,Clear,360,2012-12-05 05:53:00